Miscellaneous Local Product
Issued by NWS Hastings, NE

Home | Current Version | Previous Version | Graphics & Text | Print | Product List | Glossary On
Versions: 1 2 3 4 5 6 7 8 9 10 11 12 13 14 15 16 17 18 19 20 21 22 23 24 25 26 27 28 29 30 31 32 33 34 35 36 37 38 39 40 41 42 43 44 45 46 47 48 49 50
000
AXUS43 KGID 282002
MISGRI

GID CWA HOURLY WEATHER ROUNDUP
NATIONAL WEATHER SERVICE HASTINGS NE
300 PM CDT TUE JUL 28 2015

NOTE: "FAIR" INDICATES FEW OR NO CLOUDS BELOW 12,000 FEET WITH NO
SIGNIFICANT WEATHER AND/OR OBSTRUCTIONS TO VISIBILITY.

...SOUTH CENTRAL NEBRASKA...

CITY           SKY/WX    TMP DP  RH WIND       PRES   REMARKS
GRAND ISLAND   CLOUDY    84  58  40 N20       29.96R
HASTINGS       SUNNY     82  66  58 N16G23    29.95R
KEARNEY        MOSUNNY   82  54  36 N17       29.99R
ORD            MOSUNNY   82  53  36 NW14      29.98R
YORK           PTSUNNY   77  72  83 N12G23    29.93R
AURORA         CLOUDY    78  71  79 N14       29.95R
LEXINGTON      MOSUNNY   82  52  35 N9        30.01S
HOLDREGE       MOSUNNY   78  53  41 N16       30.00R
HEBRON         PTSUNNY   88  75  65 N13G20    29.88R HX  97

...NEBRASKA PANHANDLE...

CITY           SKY/WX    TMP DP  RH WIND       PRES   REMARKS
CHADRON        SUNNY     79  37  22 NW15G22   30.07S
ALLIANCE       SUNNY     79  34  19 W16G26    30.10S
SCOTTSBLUFF    SUNNY     79  31  17 N12       30.12S
SIDNEY         SUNNY     81  31  16 N20G26    30.14R

...WESTERN AND NORTH CENTRAL NEBRASKA...

CITY           SKY/WX    TMP DP  RH WIND       PRES   REMARKS
VALENTINE      SUNNY     82  44  26 W9        30.02S
AINSWORTH      SUNNY     80  44  28 W10G18    30.03S
ONEILL         SUNNY     78  53  42 NW14G22   29.99S
BROKEN BOW     SUNNY     82  53  36 N8G20     30.01S
IMPERIAL       SUNNY     83  40  21 N18       30.08R
NORTH PLATTE   SUNNY     83  48  29 N13G18    30.02S
MCCOOK         SUNNY     86  51  29 N14G22    30.02R

...EASTERN NEBRASKA...

CITY           SKY/WX    TMP DP  RH WIND       PRES   REMARKS
NORFOLK        CLOUDY    79  58  48 NW18      29.93R
SO SIOUX CITY  CLOUDY    76  69  79 NW8       29.90R
TEKAMAH        CLOUDY    81  77  88 W3        29.88R
COLUMBUS       CLOUDY    73  66  78 N8        29.94R
ALBION         MOSUNNY   80  52  37 N14       29.96R
OMAHA EPPLEY   LGT RAIN  88  75  65 S10       29.86R HX  97
OFFUTT AFB     PTSUNNY   88  76  67 S7        29.85R HX  98
MILLARD        PTSUNNY   87  76  69 SE9       29.86R HX  97
LINCOLN        PTSUNNY   89  74  60 SW8       29.88R HX  98
NEBRASKA CITY  MOSUNNY   90  73  58 S8        29.85F HX  98
BEATRICE       MOSUNNY   91  72  55 SW3       29.86R HX  98
FALLS CITY     SUNNY     92  77  61 S14       29.84S HX 105

...NORTHERN KANSAS...

CITY           SKY/WX    TMP DP  RH WIND       PRES   REMARKS
GOODLAND       SUNNY     84  41  21 N17G26    30.08S
HILL CITY      SUNNY     87  55  33 N22       29.98R
NORTON         CLEAR     81  46  30 N17G25    30.00R
PHILLIPSBURG   PTSUNNY   88  55  33 N17G25    29.95S
SMITH CENTER   MOSUNNY   84  66  54 N17       29.92S
HAYS           SUNNY     88  64  45 N21G28    29.92R
RUSSELL        SUNNY     94  71  47 N12       29.86S HX 101
CONCORDIA      SUNNY     94  73  50 VRB6      29.85S HX 103
SALINA         SUNNY    102  68  33 S17G25    29.82S HX 108
TOPEKA         SUNNY     96  72  45 S15       29.86S HX 104



USA.gov is the U.S. government's official web portal to all federal, state and local government web resources and services.